Weather Service Report


490 
ASUS44 KFWD 230915
RWRTX 
NORTH TEXAS HOURLY WEATHER ROUNDUP
NATIONAL WEATHER SERVICE FORT WORTH TX
400 AM CDT WED APR 23 2014

NOTE: "FAIR" INDICATES FEW OR NO CLOUDS BELOW 12,000 FEET WITH NO
SIGNIFICANT WEATHER AND/OR OBSTRUCTIONS TO VISIBILITY.

TXZ118-119-231000-
DALLAS/FORT WORTH METROPLEX
  
CITY           SKY/WX    TMP DP  RH WIND       PRES   REMARKS
DFW AIRPORT    CLEAR     63  57  81 SE3       29.91F                  
DALLAS LOVE    CLEAR     63  56  78 CALM      29.92S                  
FTW MEACHAM    CLEAR     62  58  86 CALM      29.92S                  
DAL-EXECUTIVE  CLEAR     62  57  83 CALM      29.92S                  
FTW-ALLIANCE   PTCLDY    60  56  86 CALM      29.91F                  
FTW-NAS-JRB    CLEAR     64  55  72 CALM      29.96S                  
FTW-SPINKS     CLEAR     56  55  94 CALM      29.93F                  
ARLINGTON      CLEAR     55  53  93 CALM      29.92S                  
GRAND PRAIRIE  CLEAR     63  55  77 CALM      29.95S                  
ADDISON        CLEAR     66  55  67 CALM      29.94S                  
MESQUITE       CLEAR     57  56  94 CALM      29.93S                  
LANCASTER      CLEAR     57  54  92 CALM      29.94S                  
$$

TXZ091>094-102>105-117-120-121-131>134-231000-
NORTH CENTRAL TEXAS
  
CITY           SKY/WX    TMP DP  RH WIND       PRES   REMARKS
SHRMAN/DENISON CLEAR     64  44  48 E8        29.93F                  
GAINESVILLE    CLEAR     58  50  76 CALM      29.94F                  
BOWIE          CLEAR     57  53  84 SE3       29.92S                  
BRIDGEPORT     CLEAR     54  54  99 CALM      29.94S                  
DECATUR        CLEAR     62  55  76 S6        29.92F                  
DENTON         CLEAR     56  55  97 CALM      29.92F                  
MCKINNEY       CLEAR     54  53  97 CALM      29.92F                  
GREENVILLE     CLEAR     55  54  94 CALM      29.93S                  
ROCKWALL       CLEAR     62  53  71 E6        29.92S                  
TERRELL        CLEAR     59  57  93 CALM      29.93S                  
WAXAHACHIE     CLEAR     60  57  89 CALM      29.94S                  
CLEBURNE       CLEAR     59  57  94 CALM      29.95S                  
GRANBURY       CLEAR     56  54  91 CALM      29.93F                  
$$

TXZ083>090-098>101-113>116-127>130-139>142-154-155-231000-
WESTERN NORTH TEXAS
  
CITY           SKY/WX    TMP DP  RH WIND       PRES   REMARKS
WICHITA FALLS  CLEAR     60  53  77 S10       29.89S                  
WF-KICKAPOO    CLEAR     60  54  79 SE9       29.91S                  
VERNON         CLEAR     62  53  73 S9        29.88F                  
ABILENE        CLEAR     64  52  64 SE15      29.90F                  
ABILENE-DYESS  CLEAR     62  51  69 S10       29.89F                  
BRECKENRIDGE   CLEAR     65  54  67 SE9       29.90F                  
GRAHAM         CLEAR     60  54  78 SE7       29.89F                  
MINERAL WELLS  CLEAR     59  55  87 SE7       29.91F                  
STEPHENVILLE   CLEAR     59  53  82 CALM      29.96S                  
COMANCHE       CLEAR     60  55  82 S5        29.94S                  
BROWNWOOD      PTCLDY    52  50  93 CALM      29.93F                  
COLEMAN        CLEAR     60  53  76 S5        29.93S                  
BRADY          CLEAR     61  54  77 E5        29.93S                  
$$

TXZ143>147-156>162-174-175-231000-
CENTRAL TEXAS
  
CITY           SKY/WX    TMP DP  RH WIND       PRES   REMARKS
WACO           CLEAR     54  54 100 CALM      29.93S                  
WACO-MCGREGOR  CLEAR     59  52  77 S3        29.94S                  
HILLSBORO      CLEAR     65  55  70 E8        29.93S                  
CORSICANA      CLEAR     62  59  90 S3        29.94S                  
MEXIA          CLEAR     63  58  82 CALM      29.92S                  
HEARNE         CLEAR     58  56  94 CALM      29.93S                  
CAMERON        CLEAR     60  58  94 S3        29.93R                  
TEMPLE         CLEAR     61  54  77 CALM      29.96S                  
KILLEEN        CLEAR     64  57  77 SE3       29.92F                  
KILLEEN-SKYLRK CLEAR    N/A N/A N/A CALM      29.91S                  
FORT HOOD      CLEAR     63  57  81 SE3       29.92F                  
GATESVILLE     CLEAR     59  57  94 CALM      29.95S                  
HAMILTON       CLEAR     59  54  83 SE5       29.95S                  
LAMPASAS       CLEAR     61  57  87 CALM      29.92F                  
$$

TXZ095>097-106>112-122>126-135>138-148>153-164>167-231000-
EAST TEXAS
  
CITY           SKY/WX    TMP DP  RH WIND       PRES   REMARKS
PARIS          CLEAR     59  46  63 E6        29.93S                  
SULPHUR SPRNGS CLEAR     58  55  89 CALM      29.95S                  
CLARKSVILLE    CLEAR     59  50  70 CALM      29.93S                  
MOUNT PLEASANT   N/A     56  55  99 E3        29.94F                  
GILMER         CLEAR     57  57 100 CALM      29.95S                  
MINEOLA        CLEAR     57  57 100 CALM      29.94S FOG              
TYLER          CLEAR     62  56  80 SE3       29.93S                  
LONGVIEW       CLEAR     58  55  90 CALM      29.93S                  
MARSHALL       CLEAR     57  55  92 CALM      29.96S                  
ATHENS         CLEAR     55  54  94 CALM      29.93S                  
PALESTINE      CLEAR     59  56  88 CALM      29.95S                  
JACKSONVILLE   CLEAR     63  56  79 CALM      29.95F                  
HENDERSON      CLEAR     56  54  94 CALM      29.94S FOG              
NACOGDOCHES    CLEAR     54  50  87 CALM      29.94S                  
LUFKIN         CLEAR     61  57  87 CALM      29.93F                  
$$

SUPPLEMENTAL OBSERVATIONS (CENTRAL)
  
CITY           SKY/WX    TMP DP  RH WIND       PRES   REMARKS
LAKE TEXOMA      N/A     54  52  94 E2          N/A                   
CADDO GRASSLND   N/A     54  52  94 S1          N/A                   
PAT MAYSE LAKE   N/A     55  52  88 CALM        N/A                   
GREENVILLE       N/A     55  52  88 CALM        N/A                   
CEDAR HILL       N/A     64  55  72 SE5         N/A                   
ATHENS           N/A     59  57  94 CALM        N/A                   
PALESTINE        N/A     57  55  94 CALM        N/A                   
MCGREGOR         N/A     63  57  82 CALM        N/A                   
TEMPLE           N/A     63  57  82 E5          N/A                   
$$

SUPPLEMENTAL OBSERVATIONS (WEST)
  
CITY           SKY/WX    TMP DP  RH WIND       PRES   REMARKS
MILLERS CREEK    N/A     63  50  63 S13         N/A                   
POSSUM KINGDOM   N/A     63  54  72 SE6         N/A                   
LBJ GRASSLAND    N/A     64  55  72 SE6         N/A                   
GRANBURY         N/A     55  52  88 CALM        N/A                   
HAMBY            N/A     64  52  63 S14         N/A                   
COLORADO BEND    N/A     63  55  77 SE5         N/A                   
$$

SUPPLEMENTAL OBSERVATIONS (EAST)
  
CITY           SKY/WX    TMP DP  RH WIND       PRES   REMARKS
CLARKSVILLE      N/A     59  48  67 NE3         N/A                   
TEXARKANA        N/A     52  50  93 CALM        N/A                   
LINDEN           N/A     55  54  94 CALM        N/A                   
CADDO LAKE       N/A     54  52  94 CALM        N/A                   
GILMER           N/A     55  54  94 CALM        N/A                   
HENDERSON        N/A     55  54  94 CALM        N/A                   
LUFKIN           N/A     57  55  94 MISG        N/A                   
S SABINE NF      N/A     57  55  94 SW1         N/A                   
$$

SUPPLEMENTAL OBSERVATIONS ARE A COLLECTION OF AUTOMATED INSTRUMENTS
THAT ARE MAINTAINED BY A VARIETY OF FEDERAL AND STATE AGENCIES. 
CERTAIN ELEMENTS...SUCH AS HUMIDITY VALUES AND SUSTAINED WIND 
SPEEDS...MAY BE APPROXIMATED.


Return to Home page


Western Regional Climate Center, wrcc@dri.edu